Location: Bakhuizen
(52.8696°N, 5.4575°E)
Time: 20:35:40
(UTC+00:00)

Nadezhda 1 Rocket - Pass Details

Date: 11 May 2021
Orbit: 940 x 1006 km, 83.0° (Epoch: 21 June)

Event Time Altitude Azimuth Distance (km) Brightness Sun altitude
Exits shadow 21:19:50 15° 169° (S) 2,372 5.5 -13.3°
Maximum altitude 21:24:59 60° 93° (E) 1,113 4.1 -13.7°
Drops below altitude 10° 21:31:06 10° 16° (NNE) 2,724 7.0 -14.2°
Sets 21:33:37 0° 13° (NNE) 3,665 7.8 -14.3°
